Hays, KS

2:26 PM CDT on June 22, 2017 (GMT -0500)
Hays Regional

Weather History for KHYS - November, 2013

Change the Weather History Date:

Wednesday, November 13, 2013

  Actual Average Record
Temperature  
Mean Temperature 43 °F -  
Max Temperature 62 °F 53 °F 78 °F (1999)
Min Temperature 24 °F 30 °F 8 °F (2014)
Degree Days  
Heating Degree Days 22    
Moisture  
Dew Point 27 °F    
Average Humidity 56    
Maximum Humidity 74    
Minimum Humidity 42    
Precipitation  
Precipitation 0.00 in - - ()
Sea Level Pressure  
Sea Level Pressure 30.26 in    
Wind  
Wind Speed 12 mph (SSW)    
Max Wind Speed 29 mph    
Max Gust Speed 37 mph    
Visibility 10 miles    
Events      
Averages and records for this station are not official NWS values.
T = Trace of Precipitation, MM = Missing Value Source: NWS Daily Summary

Daily Weather History Graph

Daily Weather History Graph

Search for Another Location

Airport or City:

Trip Planner

Search our weather history database for the weather conditions in past years. The results will help you decide how hot, cold, wet, or windy it might be!

Date:

Astronomy

Nov. 13, 2013 Rise Set
Actual Time 7:17 AM CST 5:24 PM CST
Civil Twilight 6:49 AM CST 5:53 PM CST
Nautical Twilight 6:17 AM CST 6:25 PM CST
Astronomical Twilight 5:45 AM CST 6:56 PM CST
Moon 3:11 PM CST (11/13) 3:14 AM CST (11/13)
Length of Visible Light 11h 03m
Length of Day
10h 06m
Waxing Gibbous, 85% of the Moon is Illuminated
Nov 13
Waxing Gibbous
Nov 17
Full
Nov 25
Last Quarter
Dec 2
New
Dec 9
First Quarter

Hourly Weather History & Observations

Time (CST) Temp. Windchill Dew Point Humidity Pressure Visibility Wind Dir Wind Speed Gust Speed Precip Events Conditions
12:15 AM 24.8 °F 20.5 °F 15.8 °F 69% 30.55 in 10.0 mi South 3.5 mph - N/A   Clear
12:35 AM 24.8 °F 19.1 °F 15.8 °F 69% 30.54 in 10.0 mi South 4.6 mph - N/A   Clear
12:55 AM 24.8 °F 19.1 °F 17.6 °F 74% 30.54 in 10.0 mi SSW 4.6 mph - N/A   Clear
1:15 AM 24.8 °F 16.1 °F 17.6 °F 74% 30.53 in 10.0 mi South 8.1 mph - N/A   Clear
1:35 AM 26.6 °F 19.1 °F 17.6 °F 69% 30.52 in 10.0 mi South 6.9 mph - N/A   Clear
1:55 AM 24.8 °F 16.1 °F 17.6 °F 74% 30.51 in 10.0 mi SSW 8.1 mph - N/A   Clear
2:15 AM 24.8 °F 16.9 °F 17.6 °F 74% 30.50 in 10.0 mi SSW 6.9 mph - N/A   Clear
2:35 AM 26.6 °F 19.1 °F 17.6 °F 69% 30.49 in 10.0 mi SSW 6.9 mph - N/A   Clear
2:55 AM 26.6 °F - 17.6 °F 69% 30.49 in 10.0 mi Calm Calm - N/A   Clear
3:15 AM 26.6 °F 20.0 °F 17.6 °F 69% 30.47 in 10.0 mi South 5.8 mph - N/A   Clear
3:35 AM 26.6 °F 20.0 °F 17.6 °F 69% 30.47 in 10.0 mi SSW 5.8 mph - N/A   Clear
3:55 AM 26.6 °F - 15.8 °F 64% 30.46 in 10.0 mi Calm Calm - N/A   Clear
4:15 AM 24.8 °F 17.9 °F 17.6 °F 74% 30.45 in 10.0 mi South 5.8 mph - N/A   Clear
4:35 AM 24.8 °F 15.3 °F 17.6 °F 74% 30.44 in 10.0 mi SSW 9.2 mph - N/A   Clear
4:55 AM 26.6 °F 16.2 °F 17.6 °F 69% 30.43 in 10.0 mi South 11.5 mph - N/A   Clear
5:15 AM 26.6 °F 22.6 °F 17.6 °F 69% 30.43 in 10.0 mi SSW 3.5 mph - N/A   Clear
5:35 AM 26.6 °F 19.1 °F 17.6 °F 69% 30.42 in 10.0 mi SSW 6.9 mph - N/A   Clear
5:55 AM 24.8 °F 16.1 °F 17.6 °F 74% 30.41 in 10.0 mi South 8.1 mph - N/A   Clear
6:15 AM 24.8 °F 14.6 °F 17.6 °F 74% 30.40 in 10.0 mi South 10.4 mph - N/A   Clear
6:35 AM 26.6 °F 21.2 °F 17.6 °F 69% 30.40 in 10.0 mi South 4.6 mph - N/A   Clear
6:55 AM 26.6 °F 20.0 °F 17.6 °F 69% 30.39 in 10.0 mi SSW 5.8 mph - N/A   Clear
7:15 AM 26.6 °F 16.8 °F 17.6 °F 69% 30.38 in 10.0 mi South 10.4 mph - N/A   Clear
7:35 AM 26.6 °F 17.5 °F 19.4 °F 74% 30.37 in 10.0 mi South 9.2 mph - N/A   Clear
7:55 AM 28.4 °F 18.5 °F 19.4 °F 69% 30.37 in 10.0 mi South 11.5 mph - N/A   Clear
8:15 AM 28.4 °F 17.5 °F 19.4 °F 69% 30.36 in 10.0 mi South 13.8 mph - N/A   Clear
8:35 AM 30.2 °F 20.2 °F 21.2 °F 69% 30.36 in 10.0 mi South 12.7 mph - N/A   Clear
8:55 AM 33.8 °F 24.3 °F 21.2 °F 60% 30.36 in 10.0 mi SSW 13.8 mph - N/A   Clear
9:15 AM 35.6 °F 25.9 °F 23.0 °F 60% 30.35 in 10.0 mi SSW 16.1 mph 23.0 mph N/A   Clear
9:35 AM 37.4 °F 27.8 °F 24.8 °F 60% 30.34 in 10.0 mi SSW 17.3 mph 24.2 mph N/A   Clear
9:55 AM 41.0 °F 31.4 °F 26.6 °F 57% 30.33 in 10.0 mi SSW 21.9 mph 26.5 mph N/A   Clear
10:15 AM 42.8 °F 34.5 °F 26.6 °F 53% 30.33 in 10.0 mi SSW 18.4 mph 26.5 mph N/A   Clear
10:35 AM 44.6 °F 37.2 °F 26.6 °F 49% 30.32 in 10.0 mi SSW 17.3 mph - N/A   Clear
10:55 AM 46.4 °F 38.5 °F 28.4 °F 50% 30.32 in 10.0 mi SW 21.9 mph - N/A   Clear
11:15 AM 48.2 °F - 28.4 °F 46% 30.30 in 10.0 mi SW 20.7 mph - N/A   Clear
11:35 AM 50.0 °F - 30.2 °F 47% 30.29 in 10.0 mi SW 20.7 mph - N/A   Clear
11:55 AM 53.6 °F - 33.8 °F 47% 30.27 in 10.0 mi SSW 17.3 mph - N/A   Clear
12:15 PM 55.4 °F - 35.6 °F 47% 30.26 in 10.0 mi SSW 17.3 mph - N/A   Clear
12:35 PM 57.2 °F - 35.6 °F 44% 30.24 in 10.0 mi SSW 25.3 mph 29.9 mph N/A   Clear
12:55 PM 59.0 °F - 37.4 °F 45% 30.22 in 10.0 mi SSW 25.3 mph 31.1 mph N/A   Clear
1:15 PM 59.0 °F - 37.4 °F 45% 30.20 in 10.0 mi SSW 25.3 mph 31.1 mph N/A   Clear
1:35 PM 60.8 °F - 37.4 °F 42% 30.19 in 10.0 mi SSW 21.9 mph 28.8 mph N/A   Clear
1:55 PM 60.8 °F - 37.4 °F 42% 30.17 in 10.0 mi SSW 23.0 mph 29.9 mph N/A   Clear
2:15 PM 60.8 °F - 37.4 °F 42% 30.16 in 10.0 mi SSW 25.3 mph 32.2 mph N/A   Clear
2:35 PM 60.8 °F - 37.4 °F 42% 30.14 in 10.0 mi South 26.5 mph 32.2 mph N/A   Clear
2:55 PM 60.8 °F - 37.4 °F 42% 30.12 in 10.0 mi SSW 26.5 mph 34.5 mph N/A   Clear
3:15 PM 60.8 °F - 39.2 °F 45% 30.12 in 10.0 mi South 28.8 mph 36.8 mph N/A   Clear
3:35 PM 62.6 °F - 39.2 °F 42% 30.11 in 10.0 mi South 26.5 mph 33.4 mph N/A   Clear
3:55 PM 62.6 °F - 39.2 °F 42% 30.12 in 10.0 mi South 20.7 mph 31.1 mph N/A   Clear
4:15 PM 62.6 °F - 39.2 °F 42% 30.11 in 10.0 mi South 18.4 mph 27.6 mph N/A   Clear
4:35 PM 60.8 °F - 39.2 °F 45% 30.10 in 10.0 mi South 20.7 mph - N/A   Clear
4:55 PM 60.8 °F - 39.2 °F 45% 30.10 in 10.0 mi South 16.1 mph - N/A   Clear
5:15 PM 57.2 °F - 39.2 °F 51% 30.09 in 10.0 mi South 12.7 mph - N/A   Clear
5:35 PM 55.4 °F - 37.4 °F 51% 30.09 in 10.0 mi South 13.8 mph - N/A   Clear
5:55 PM 55.4 °F - 37.4 °F 51% 30.08 in 10.0 mi South 16.1 mph 19.6 mph N/A   Clear
6:15 PM 53.6 °F - 37.4 °F 54% 30.08 in 10.0 mi South 18.4 mph 23.0 mph N/A   Clear
6:35 PM 51.8 °F - 33.8 °F 50% 30.08 in 10.0 mi South 18.4 mph 23.0 mph N/A   Clear
6:55 PM 51.8 °F - 33.8 °F 50% 30.07 in 10.0 mi South 21.9 mph - N/A   Clear
7:15 PM 51.8 °F - 32.0 °F 47% 30.07 in 10.0 mi South 20.7 mph 27.6 mph N/A   Clear
7:35 PM 51.8 °F - 30.2 °F 44% 30.07 in 10.0 mi South 23.0 mph 29.9 mph N/A   Clear
7:55 PM 50.0 °F - 30.2 °F 47% 30.07 in 10.0 mi South 18.4 mph - N/A   Clear
8:15 PM 48.2 °F - 30.2 °F 50% 30.06 in 10.0 mi South 17.3 mph 24.2 mph N/A   Clear
8:35 PM 48.2 °F - 28.4 °F 46% 30.06 in 10.0 mi South 18.4 mph 24.2 mph N/A   Clear
8:55 PM 46.4 °F 38.7 °F 28.4 °F 50% 30.05 in 10.0 mi South 20.7 mph 24.2 mph N/A   Clear
9:15 PM 46.4 °F 38.7 °F 28.4 °F 50% 30.04 in 10.0 mi South 20.7 mph - N/A   Clear
9:35 PM 46.4 °F 39.0 °F 28.4 °F 50% 30.04 in 10.0 mi South 19.6 mph - N/A   Clear
9:55 PM 44.6 °F 36.9 °F 28.4 °F 53% 30.04 in 10.0 mi South 18.4 mph 24.2 mph N/A   Clear
10:15 PM 44.6 °F 37.2 °F 28.4 °F 53% 30.03 in 10.0 mi South 17.3 mph 23.0 mph N/A   Clear
10:35 PM 44.6 °F 37.2 °F 26.6 °F 49% 30.03 in 10.0 mi South 17.3 mph - N/A   Clear
10:55 PM 44.6 °F 37.8 °F 26.6 °F 49% 30.03 in 10.0 mi South 15.0 mph - N/A   Clear
11:15 PM 44.6 °F 37.8 °F 26.6 °F 49% 30.02 in 10.0 mi SSW 15.0 mph 20.7 mph N/A   Clear
11:35 PM 44.6 °F 38.4 °F 26.6 °F 49% 30.03 in 10.0 mi SSW 12.7 mph - N/A   Clear
11:55 PM 42.8 °F 36.6 °F 26.6 °F 53% 30.01 in 10.0 mi South 11.5 mph - N/A   Clear